BWA284 TTPP-TBPB

Flight info

Callsign BWA284
Flight time 0h 47m
Altitude 15000
Route LOGAN DCT OLIDO DCT ELIXA
Aircraft AT76/M-SDFGIRY/S

Departure

Time 2026-05-03 21:21
Airport Piarco International Airport (TTPP)

Arrival

Time 2026-05-03 22:08
Airport Grantley Adams International Airport (TBPB)
Time Latitude Longitude Altitude Speed Heading
2026-05-03 20:22 10.59984 -61.34090 46 ft 0 kts 124°
2026-05-03 21:16 10.59977 -61.34093 46 ft 3 kts 212°
2026-05-03 21:16 10.59933 -61.34139 46 ft 13 kts 230°
2026-05-03 21:17 10.59855 -61.34177 45 ft 11 kts 180°
2026-05-03 21:17 10.59806 -61.34176 45 ft 10 kts 179°
2026-05-03 21:17 10.59735 -61.34178 44 ft 10 kts 196°
2026-05-03 21:17 10.59708 -61.34294 44 ft 19 kts 271°
2026-05-03 21:18 10.59708 -61.34386 43 ft 20 kts 269°
2026-05-03 21:18 10.59693 -61.34509 42 ft 18 kts 228°
2026-05-03 21:18 10.59637 -61.34526 42 ft 0 kts 183°
2026-05-03 21:19 10.59603 -61.34527 42 ft 11 kts 180°
2026-05-03 21:20 10.59536 -61.34495 42 ft 9 kts 102°
2026-05-03 21:20 10.59535 -61.34441 43 ft 17 kts 90°
2026-05-03 21:20 10.59536 -61.34082 46 ft 85 kts 89°
2026-05-03 21:20 10.59539 -61.33323 314 ft 119 kts 92°
2026-05-03 21:21 10.59514 -61.32406 770 ft 137 kts 90°
2026-05-03 21:21 10.59496 -61.31417 1400 ft 143 kts 90°
2026-05-03 21:21 10.59481 -61.30380 2011 ft 148 kts 91°
2026-05-03 21:21 10.59473 -61.29318 2659 ft 152 kts 90°
2026-05-03 21:22 10.59459 -61.28232 3241 ft 156 kts 91°
2026-05-03 21:22 10.59446 -61.27119 3829 ft 160 kts 91°
2026-05-03 21:22 10.59446 -61.25957 4321 ft 172 kts 90°
2026-05-03 21:22 10.59452 -61.24691 4785 ft 187 kts 91°
2026-05-03 21:23 10.59454 -61.23343 5223 ft 198 kts 91°
2026-05-03 21:23 10.59467 -61.21910 5700 ft 204 kts 91°
2026-05-03 21:23 10.59495 -61.20446 6222 ft 207 kts 91°
2026-05-03 21:23 10.59643 -61.18994 6710 ft 210 kts 73°
2026-05-03 21:24 10.60577 -61.17828 7212 ft 219 kts 40°
2026-05-03 21:24 10.61941 -61.17087 7655 ft 224 kts 29°
2026-05-03 21:24 10.63373 -61.16448 8058 ft 229 kts 26°
2026-05-03 21:24 10.64852 -61.15821 8472 ft 232 kts 26°
2026-05-03 21:25 10.66363 -61.15205 8901 ft 233 kts 25°
2026-05-03 21:25 10.67873 -61.14660 9368 ft 233 kts 22°
2026-05-03 21:25 10.69427 -61.14144 9853 ft 232 kts 22°
2026-05-03 21:25 10.70948 -61.13649 10274 ft 232 kts 21°
2026-05-03 21:26 10.72496 -61.13148 10739 ft 232 kts 21°
2026-05-03 21:26 10.74041 -61.12655 11169 ft 232 kts 21°
2026-05-03 21:26 10.75568 -61.12168 11612 ft 232 kts 21°
2026-05-03 21:26 10.77116 -61.11676 12070 ft 231 kts 21°
2026-05-03 21:27 10.78638 -61.11192 12523 ft 230 kts 21°
2026-05-03 21:27 10.80162 -61.10709 12990 ft 228 kts 21°
2026-05-03 21:27 10.81666 -61.10232 13467 ft 226 kts 21°
2026-05-03 21:27 10.83173 -61.09752 13924 ft 224 kts 21°
2026-05-03 21:28 10.84659 -61.09281 14341 ft 223 kts 21°
2026-05-03 21:28 10.86174 -61.08800 14518 ft 233 kts 21°
2026-05-03 21:28 10.87734 -61.08300 14701 ft 241 kts 21°
2026-05-03 21:28 10.89340 -61.07783 14838 ft 248 kts 21°
2026-05-03 21:29 10.91035 -61.07233 14909 ft 257 kts 21°
2026-05-03 21:29 10.92762 -61.06668 14935 ft 265 kts 21°
2026-05-03 21:29 10.94519 -61.06085 14960 ft 269 kts 22°
2026-05-03 21:29 10.96251 -61.05323 14965 ft 272 kts 31°
2026-05-03 21:30 10.97864 -61.04320 14970 ft 274 kts 38°
2026-05-03 21:30 10.99380 -61.03157 14972 ft 276 kts 41°
2026-05-03 21:30 11.00895 -61.01925 15054 ft 275 kts 41°
2026-05-03 21:30 11.02386 -61.00715 15025 ft 279 kts 41°
2026-05-03 21:31 11.03933 -60.99483 14994 ft 281 kts 40°
2026-05-03 21:31 11.05497 -60.98276 15022 ft 281 kts 39°
2026-05-03 21:31 11.07042 -60.97081 15077 ft 280 kts 39°
2026-05-03 21:31 11.08606 -60.95877 15085 ft 281 kts 40°
2026-05-03 21:32 11.10151 -60.94681 15096 ft 282 kts 40°
2026-05-03 21:32 11.11713 -60.93475 15145 ft 280 kts 39°
2026-05-03 21:32 11.13278 -60.92268 15113 ft 283 kts 40°
2026-05-03 21:32 11.14850 -60.91052 15090 ft 284 kts 39°
2026-05-03 21:33 11.16402 -60.89852 15161 ft 281 kts 40°
2026-05-03 21:33 11.17963 -60.88645 15165 ft 282 kts 40°
2026-05-03 21:33 11.19548 -60.87424 15132 ft 284 kts 39°
2026-05-03 21:33 11.21123 -60.86212 15187 ft 282 kts 39°
2026-05-03 21:34 11.22690 -60.85009 15219 ft 282 kts 39°
2026-05-03 21:34 11.24255 -60.83820 15182 ft 284 kts 39°
2026-05-03 21:34 11.25840 -60.82617 15197 ft 283 kts 39°
2026-05-03 21:34 11.27417 -60.81410 15240 ft 282 kts 39°
2026-05-03 21:35 11.28986 -60.80197 15219 ft 283 kts 40°
2026-05-03 21:35 11.30571 -60.78974 15217 ft 284 kts 39°
2026-05-03 21:35 11.32126 -60.77772 15260 ft 282 kts 39°
2026-05-03 21:35 11.33687 -60.76564 15274 ft 282 kts 39°
2026-05-03 21:36 11.35264 -60.75343 15242 ft 284 kts 39°
2026-05-03 21:36 11.36819 -60.74139 15274 ft 283 kts 39°
2026-05-03 21:36 11.38387 -60.72923 15312 ft 282 kts 40°
2026-05-03 21:36 11.39961 -60.71708 15286 ft 284 kts 39°
2026-05-03 21:37 11.41525 -60.70498 15309 ft 283 kts 40°
2026-05-03 21:37 11.43094 -60.69282 15340 ft 282 kts 40°
2026-05-03 21:37 11.44645 -60.68081 15306 ft 284 kts 40°
2026-05-03 21:37 11.46225 -60.66858 15323 ft 283 kts 40°
2026-05-03 21:38 11.47789 -60.65645 15362 ft 282 kts 40°
2026-05-03 21:38 11.49345 -60.64440 15326 ft 283 kts 40°
2026-05-03 21:38 11.50921 -60.63218 15331 ft 283 kts 40°
2026-05-03 21:38 11.52476 -60.62012 15374 ft 282 kts 40°
2026-05-03 21:39 11.54038 -60.60801 15377 ft 282 kts 40°
2026-05-03 21:39 11.55577 -60.59609 15532 ft 277 kts 40°
2026-05-03 21:39 11.57114 -60.58417 15641 ft 275 kts 39°
2026-05-03 21:39 11.58655 -60.57222 15527 ft 281 kts 40°
2026-05-03 21:40 11.60202 -60.56022 15597 ft 279 kts 40°
2026-05-03 21:40 11.61742 -60.54826 15756 ft 275 kts 40°
2026-05-03 21:40 11.63263 -60.53648 15697 ft 279 kts 39°
2026-05-03 21:40 11.64828 -60.52431 15670 ft 281 kts 39°
2026-05-03 21:41 11.66361 -60.51244 15814 ft 276 kts 39°
2026-05-03 21:41 11.67895 -60.50051 15898 ft 275 kts 39°
2026-05-03 21:41 11.69418 -60.48870 15879 ft 278 kts 40°
2026-05-03 21:41 11.70975 -60.47659 15687 ft 286 kts 40°
2026-05-03 21:42 11.72574 -60.46419 15552 ft 290 kts 40°
2026-05-03 21:42 11.74167 -60.45178 15635 ft 284 kts 40°
2026-05-03 21:42 11.75778 -60.43899 15201 ft 298 kts 40°
2026-05-03 21:42 11.77410 -60.42630 15092 ft 298 kts 39°
2026-05-03 21:43 11.79066 -60.41348 15012 ft 297 kts 39°
2026-05-03 21:43 11.80720 -60.40072 14942 ft 296 kts 39°
2026-05-03 21:43 11.82339 -60.38830 14924 ft 293 kts 39°
2026-05-03 21:43 11.83971 -60.37564 14940 ft 289 kts 39°
2026-05-03 21:44 11.85554 -60.36334 14972 ft 287 kts 40°
2026-05-03 21:44 11.87130 -60.35108 14985 ft 286 kts 39°
2026-05-03 21:44 11.88719 -60.33872 14987 ft 285 kts 39°
2026-05-03 21:44 11.90300 -60.32644 14992 ft 285 kts 40°
2026-05-03 21:45 11.91882 -60.31414 14994 ft 284 kts 39°
2026-05-03 21:45 11.93441 -60.30202 14996 ft 284 kts 39°
2026-05-03 21:45 11.95023 -60.28969 14993 ft 284 kts 39°
2026-05-03 21:45 11.96584 -60.27755 14996 ft 284 kts 40°
2026-05-03 21:46 11.98138 -60.26545 14992 ft 284 kts 39°
2026-05-03 21:46 11.99715 -60.25318 14993 ft 284 kts 39°
2026-05-03 21:46 12.01298 -60.24088 14994 ft 284 kts 40°
2026-05-03 21:46 12.02851 -60.22875 14993 ft 284 kts 40°
2026-05-03 21:47 12.04424 -60.21650 14993 ft 284 kts 40°
2026-05-03 21:47 12.06000 -60.20421 14996 ft 284 kts 39°
2026-05-03 21:47 12.07556 -60.19208 14995 ft 284 kts 40°
2026-05-03 21:47 12.09130 -60.17984 14995 ft 284 kts 39°
2026-05-03 21:48 12.10706 -60.16755 14993 ft 284 kts 40°
2026-05-03 21:48 12.12278 -60.15533 14993 ft 284 kts 39°
2026-05-03 21:48 12.13837 -60.14319 14992 ft 283 kts 39°
2026-05-03 21:48 12.15514 -60.13272 14992 ft 284 kts 29°
2026-05-03 21:49 12.17300 -60.12427 14996 ft 284 kts 27°
2026-05-03 21:49 12.19109 -60.11595 14997 ft 285 kts 27°
2026-05-03 21:49 12.20890 -60.10729 14996 ft 285 kts 29°
2026-05-03 21:49 12.22685 -60.09808 15000 ft 285 kts 30°
2026-05-03 21:50 12.24438 -60.08908 15000 ft 285 kts 29°
2026-05-03 21:50 12.26221 -60.08000 14999 ft 285 kts 29°
2026-05-03 21:50 12.28004 -60.07091 14999 ft 285 kts 29°
2026-05-03 21:50 12.29765 -60.06190 14997 ft 285 kts 29°
2026-05-03 21:51 12.31557 -60.05278 15000 ft 285 kts 29°
2026-05-03 21:51 12.33317 -60.04381 14997 ft 285 kts 29°
2026-05-03 21:51 12.35106 -60.03469 15000 ft 285 kts 29°
2026-05-03 21:51 12.36870 -60.02569 14998 ft 285 kts 29°
2026-05-03 21:52 12.38654 -60.01657 14998 ft 285 kts 29°
2026-05-03 21:52 12.40440 -60.00746 14998 ft 285 kts 29°
2026-05-03 21:52 12.42221 -59.99836 14998 ft 286 kts 29°
2026-05-03 21:52 12.43980 -59.98938 14999 ft 286 kts 29°
2026-05-03 21:53 12.45764 -59.98027 14998 ft 285 kts 29°
2026-05-03 21:53 12.47537 -59.97122 14997 ft 278 kts 29°
2026-05-03 21:53 12.49204 -59.96271 14881 ft 266 kts 29°
2026-05-03 21:53 12.50847 -59.95430 14613 ft 262 kts 29°
2026-05-03 21:54 12.52480 -59.94595 14294 ft 262 kts 29°
2026-05-03 21:54 12.54098 -59.93768 13981 ft 262 kts 29°
2026-05-03 21:54 12.55738 -59.92928 13647 ft 262 kts 29°
2026-05-03 21:54 12.57375 -59.92093 13291 ft 262 kts 30°
2026-05-03 21:55 12.59004 -59.91261 12942 ft 261 kts 30°
2026-05-03 21:55 12.60615 -59.90437 12597 ft 261 kts 30°
2026-05-03 21:55 12.62261 -59.89596 12233 ft 262 kts 30°
2026-05-03 21:55 12.63880 -59.88767 11877 ft 263 kts 30°
2026-05-03 21:56 12.65521 -59.87928 11512 ft 263 kts 30°
2026-05-03 21:56 12.67160 -59.87089 11159 ft 263 kts 30°
2026-05-03 21:56 12.68791 -59.86256 10810 ft 258 kts 30°
2026-05-03 21:56 12.70381 -59.85441 10458 ft 250 kts 31°
2026-05-03 21:57 12.71899 -59.84664 10123 ft 244 kts 31°
2026-05-03 21:57 12.73408 -59.83891 9773 ft 239 kts 31°
2026-05-03 21:57 12.74876 -59.83138 9385 ft 236 kts 30°
2026-05-03 21:57 12.76330 -59.82393 9013 ft 233 kts 30°
2026-05-03 21:58 12.77780 -59.81649 8647 ft 231 kts 30°
2026-05-03 21:58 12.79217 -59.80913 8282 ft 230 kts 30°
2026-05-03 21:58 12.80636 -59.80185 7920 ft 229 kts 30°
2026-05-03 21:58 12.82060 -59.79455 7562 ft 228 kts 30°
2026-05-03 21:59 12.83489 -59.78723 7211 ft 228 kts 30°
2026-05-03 21:59 12.84892 -59.78006 6888 ft 227 kts 30°
2026-05-03 21:59 12.86300 -59.77279 6583 ft 225 kts 30°
2026-05-03 21:59 12.87701 -59.76554 6261 ft 222 kts 30°
2026-05-03 22:00 12.89059 -59.75851 5951 ft 221 kts 30°
2026-05-03 22:00 12.90399 -59.75165 5637 ft 219 kts 29°
2026-05-03 22:00 12.91754 -59.74474 5321 ft 217 kts 30°
2026-05-03 22:00 12.93102 -59.73788 5003 ft 214 kts 30°
2026-05-03 22:01 12.94397 -59.73132 4694 ft 198 kts 30°
2026-05-03 22:01 12.95579 -59.72533 4371 ft 185 kts 30°
2026-05-03 22:01 12.96703 -59.71959 4059 ft 175 kts 31°
2026-05-03 22:01 12.97777 -59.71398 3861 ft 175 kts 31°
2026-05-03 22:02 12.98865 -59.70840 3677 ft 174 kts 31°
2026-05-03 22:02 12.99947 -59.70282 3509 ft 173 kts 31°
2026-05-03 22:02 13.01017 -59.69738 3343 ft 171 kts 31°
2026-05-03 22:02 13.02069 -59.69197 3167 ft 169 kts 31°
2026-05-03 22:03 13.02851 -59.68389 3037 ft 158 kts 70°
2026-05-03 22:03 13.03140 -59.67325 2923 ft 156 kts 77°
2026-05-03 22:03 13.03382 -59.66240 2798 ft 155 kts 78°
2026-05-03 22:03 13.03607 -59.65154 2682 ft 155 kts 78°
2026-05-03 22:04 13.03843 -59.64086 2557 ft 155 kts 78°
2026-05-03 22:04 13.04078 -59.63011 2450 ft 155 kts 77°
2026-05-03 22:04 13.04333 -59.61929 2338 ft 156 kts 77°
2026-05-03 22:04 13.04588 -59.60888 2200 ft 145 kts 76°
2026-05-03 22:05 13.04753 -59.60248 2117 ft 133 kts 76°
2026-05-03 22:05 13.05037 -59.59139 1975 ft 112 kts 76°
2026-05-03 22:05 13.05178 -59.58627 1859 ft 113 kts 74°
2026-05-03 22:05 13.05397 -59.57823 1712 ft 118 kts 76°
2026-05-03 22:06 13.05580 -59.57007 1578 ft 117 kts 78°
2026-05-03 22:06 13.05737 -59.56189 1440 ft 117 kts 79°
2026-05-03 22:06 13.05908 -59.55377 1299 ft 117 kts 77°
2026-05-03 22:06 13.06111 -59.54569 1132 ft 115 kts 77°
2026-05-03 22:07 13.06310 -59.53758 894 ft 119 kts 78°
2026-05-03 22:07 13.06506 -59.52949 740 ft 118 kts 78°
2026-05-03 22:07 13.06721 -59.52144 606 ft 117 kts 76°
2026-05-03 22:07 13.06925 -59.51340 382 ft 118 kts 75°
2026-05-03 22:08 13.07138 -59.50542 192 ft 112 kts 76°
2026-05-03 22:08 13.07291 -59.49911 174 ft 73 kts 75°
2026-05-03 22:08 13.07394 -59.49485 172 ft 46 kts 75°
2026-05-03 22:08 13.07463 -59.49211 171 ft 33 kts 75°
2026-05-03 22:09 13.07510 -59.49031 171 ft 20 kts 69°
2026-05-03 22:09 13.07591 -59.48942 171 ft 13 kts 34°
2026-05-03 22:09 13.07645 -59.48878 172 ft 11 kts 48°
2026-05-03 22:10 13.07811 -59.48802 173 ft 11 kts 347°
2026-05-03 22:10 13.07870 -59.48817 173 ft 0 kts 346°